Location: Mohawk View
(42.7837°N, 73.7885°W)
Time: 13:12:10
(UTC+00:00)

Cosmos 1536 Rocket - Pass Details

Date: 17 June 2021
Orbit: 604 x 633 km, 82.5° (Epoch: 26 July)

Event Time Altitude Azimuth Distance (km) Brightness Sun altitude
Exits shadow 03:26:45 31° 219° (SW) 1,115 4.6 -20.7°
Maximum altitude 03:28:38 53° 281° (W) 775 4.2 -20.8°
Drops below altitude 10° 03:33:01 10° 359° (N) 2,017 7.2 -21.1°
Sets 03:35:18 0° 4° (N) 2,925 8.2 -21.3°
